Weather History for CYMA - January, 2012

Change the Weather History Date:

Monday, January 23, 2012

  Actual Average Record
Temperature  
Mean Temperature -6 °F -  
Max Temperature -4 °F 4 °F 28 °F (2015)
Min Temperature -7 °F -17 °F 7 °F (2015)
Degree Days  
Heating Degree Days 70    
Moisture  
Dew Point -12 °F    
Average Humidity 72    
Maximum Humidity 78    
Minimum Humidity 65    
Precipitation  
Precipitation 0.00 in 0.02 in - ()
Sea Level Pressure  
Sea Level Pressure 29.42 in    
Wind  
Wind Speed 10 mph ()    
Max Wind Speed 14 mph    
Max Gust Speed 21 mph    
Visibility 20.0 miles    
Events Snow    
Averages and records for this station are not official NWS values.
T = Trace of Precipitation, MM = Missing Value Source: Averaged Metar Reports

Daily Weather History Graph

Daily Weather History Graph

Search for Another Location

Airport or City:

Trip Planner

Search our weather history database for the weather conditions in past years. The results will help you decide how hot, cold, wet, or windy it might be!

Date:

Astronomy

Jan. 23, 2012 Rise Set
Actual Time 10:05 AM PST 4:25 PM PST
Civil Twilight 9:05 AM PST 5:25 PM PST
Nautical Twilight 8:05 AM PST 6:26 PM PST
Astronomical Twilight 7:09 AM PST 7:21 PM PST
Moon 9:35 AM PST (1/23) 5:59 PM PST (1/23)
Length of Visible Light 8h 20m
Length of Day
6h 19m
New Moon, 0% of the Moon is Illuminated
Jan 23
New Moon
Jan 30
First Quarter
Feb 7
Full
Feb 14
Last Quarter
Feb 21
New

Hourly Weather History & Observations

Time (PST) Temp. Windchill Dew Point Humidity Pressure Visibility Wind Dir Wind Speed Gust Speed Precip Events Conditions
12:00 AM -4.0 °F -23.7 °F -9.4 °F 78% 29.40 in 20.0 mi NNE 13.8 mph - N/A Snow Light Snow
1:00 AM -4.0 °F -23.7 °F -11.2 °F 71% 29.39 in 20.0 mi North 13.8 mph 20.7 mph N/A Snow Light Snow
2:00 AM -4.0 °F -22.1 °F -11.2 °F 71% 29.40 in 20.0 mi North 11.5 mph 18.4 mph N/A Snow Light Snow
3:00 AM -4.0 °F -20.2 °F -11.2 °F 71% 29.40 in 20.0 mi North 9.2 mph - N/A Snow Light Snow
5:00 AM -4.0 °F -22.1 °F -11.2 °F 71% 29.41 in 20.0 mi North 11.5 mph - N/A Snow Light Snow
6:00 AM -4.0 °F -22.1 °F -11.2 °F 71% 29.41 in 20.0 mi North 11.5 mph - N/A Snow Light Snow
7:00 AM -4.0 °F -20.2 °F -11.2 °F 71% 29.41 in 20.0 mi North 9.2 mph - N/A Snow Light Snow
8:00 AM -5.8 °F -24.4 °F -13.0 °F 71% 29.41 in 20.0 mi North 11.5 mph - N/A Snow Light Snow
9:00 AM -5.8 °F -26.0 °F -14.8 °F 65% 29.43 in 20.0 mi North 13.8 mph - N/A Snow Light Snow
10:00 AM -5.8 °F -18.4 °F -13.0 °F 71% 29.44 in 20.0 mi North 5.8 mph - N/A   Scattered Clouds
12:00 PM -5.8 °F -24.4 °F -13.0 °F 71% 29.44 in 20.0 mi North 11.5 mph - N/A   Scattered Clouds
1:00 PM -4.0 °F -21.2 °F -11.2 °F 71% 29.44 in 20.0 mi NNE 10.4 mph - N/A   Partly Cloudy
2:00 PM -5.8 °F -21.2 °F -11.2 °F 77% 29.45 in 20.0 mi North 8.1 mph - N/A   Scattered Clouds
3:00 PM -4.0 °F -22.1 °F -13.0 °F 65% 29.44 in 20.0 mi NNE 11.5 mph - N/A   Mostly Cloudy
4:00 PM -7.6 °F -22.1 °F -14.8 °F 71% 29.46 in 20.0 mi NNE 6.9 mph - N/A   Mostly Cloudy
5:00 PM -7.6 °F -26.6 °F -13.0 °F 77% 29.45 in 20.0 mi North 11.5 mph - N/A   Mostly Cloudy
6:00 PM -5.8 °F -22.4 °F -13.0 °F 71% 29.44 in 20.0 mi NNE 9.2 mph - N/A   Overcast
7:00 PM -5.8 °F -23.4 °F -13.0 °F 71% 29.42 in 20.0 mi North 10.4 mph - N/A   Mostly Cloudy
8:00 PM -5.8 °F -22.4 °F -13.0 °F 71% 29.41 in 20.0 mi North 9.2 mph - N/A   Mostly Cloudy
9:00 PM -7.6 °F -26.6 °F -13.0 °F 77% 29.40 in 20.0 mi North 11.5 mph - N/A   Mostly Cloudy
10:00 PM -7.6 °F -24.6 °F -13.0 °F 77% 29.40 in 20.0 mi North 9.2 mph - N/A   Mostly Cloudy
11:00 PM -7.6 °F -26.6 °F -13.0 °F 77% 29.39 in 20.0 mi North 11.5 mph - N/A   Mostly Cloudy